Terminal Aerodrome Forecast
Issued by NWS Knoxville/Tri Cities, TN

Home | Current Version | Previous Version | Text Only | Print | Product List | Glossary On
Versions: 1 2 3 4 5 6 7 8 9 10 11 12 13 14 15 16 17 18 19 20 21 22 23 24 25 26 27 28 29 30 31 32 33 34 35 36 37 38 39 40 41 42 43 44 45 46 47
360
FTUS44 KMRX 240226 AAA
TAFTYS
TAF AMD
KTYS 240226Z 2402/2424 03010KT 5SM BR VCSH SCT007 BKN040
     FM241500 06015KT 5SM BR OVC014
     FM241800 06008KT P6SM OVC020=

USA.gov is the U.S. government's official web portal to all federal, state and local government web resources and services.